TimeEST,TemperatureF,Dew PointF,Humidity,Sea Level PressureIn,VisibilityMPH,Wind Direction,Wind SpeedMPH,Gust SpeedMPH,PrecipitationIn,Events,Conditions,WindDirDegrees,DateUTC
12:12 AM,26.6,23.0,86,29.93,2.5,SSE,4.6,-,0.01,Snow,Light Snow,160,2013-12-09 05:12:00
12:19 AM,26.6,23.0,86,29.93,3.0,SSE,4.6,-,0.01,Snow,Light Snow,160,2013-12-09 05:19:00
12:53 AM,26.1,23.0,88,29.94,4.0,South,5.8,-,0.01,Snow,Light Snow,180,2013-12-09 05:53:00
1:08 AM,26.6,23.0,86,29.90,3.0,South,6.9,-,0.00,Snow,Light Snow,190,2013-12-09 06:08:00
1:16 AM,26.6,23.0,86,29.89,2.5,South,10.4,-,0.00,Snow,Light Snow,190,2013-12-09 06:16:00
1:36 AM,26.6,23.0,86,29.89,3.0,South,10.4,-,0.00,Snow,Light Snow,190,2013-12-09 06:36:00
1:44 AM,26.6,23.0,86,29.89,4.0,South,11.5,-,0.00,,Overcast,190,2013-12-09 06:44:00
1:53 AM,26.1,23.0,88,29.92,5.0,South,11.5,-,0.00,,Overcast,190,2013-12-09 06:53:00
2:06 AM,26.6,23.0,86,29.88,6.0,SSW,10.4,-,N/A,,Overcast,200,2013-12-09 07:06:00
2:13 AM,26.6,23.0,86,29.88,7.0,SSW,9.2,-,N/A,,Overcast,200,2013-12-09 07:13:00
2:53 AM,27.0,23.0,85,29.93,8.0,SW,9.2,-,N/A,,Overcast,230,2013-12-09 07:53:00
3:53 AM,27.0,23.0,85,29.93,9.0,SW,11.5,-,N/A,,Overcast,230,2013-12-09 08:53:00
4:53 AM,27.0,23.0,85,29.92,9.0,SW,10.4,-,N/A,,Overcast,230,2013-12-09 09:53:00
5:53 AM,27.0,23.0,85,29.93,6.0,SW,12.7,-,N/A,,Overcast,220,2013-12-09 10:53:00
6:01 AM,26.6,23.0,86,29.89,5.0,SW,9.2,-,0.00,Rain,Light Freezing Rain,230,2013-12-09 11:01:00
6:53 AM,27.0,24.1,89,29.94,6.0,SW,11.5,-,0.00,Rain,Light Freezing Rain,230,2013-12-09 11:53:00
7:14 AM,26.6,23.0,86,29.91,6.0,WSW,10.4,20.7,0.00,Rain,Light Freezing Rain,240,2013-12-09 12:14:00
7:22 AM,26.6,23.0,86,29.91,6.0,WSW,16.1,21.9,0.00,Rain,Light Freezing Rain,240,2013-12-09 12:22:00
7:53 AM,27.0,21.9,81,29.96,4.0,WSW,11.5,-,0.00,Rain,Light Freezing Rain,250,2013-12-09 12:53:00
8:14 AM,26.6,21.2,80,29.93,4.0,WSW,17.3,23.0,0.00,Snow,Light Snow,240,2013-12-09 13:14:00
8:53 AM,27.0,21.0,78,29.99,3.0,WSW,17.3,-,0.00,Snow,Light Snow,240,2013-12-09 13:53:00
9:44 AM,26.6,21.2,80,29.99,1.5,WSW,13.8,20.7,0.00,Snow,Light Snow,240,2013-12-09 14:44:00
9:53 AM,26.1,21.9,84,30.03,1.0,WSW,11.5,-,0.00,Snow,Light Snow,240,2013-12-09 14:53:00
10:53 AM,26.1,21.9,84,30.05,1.5,West,15.0,20.7,0.00,Snow,Light Snow,260,2013-12-09 15:53:00
11:12 AM,26.6,21.2,80,30.01,3.0,West,18.4,27.6,0.00,Snow,Light Snow,260,2013-12-09 16:12:00
12:04 PM,26.6,21.2,80,29.99,1.2,West,9.2,18.4,0.00,Snow,Light Snow,260,2013-12-09 17:04:00
12:53 PM,25.0,19.0,78,30.05,1.0,WSW,16.1,21.9,0.00,Snow,Light Snow,250,2013-12-09 17:53:00
1:53 PM,24.1,18.0,77,30.08,1.0,WSW,19.6,25.3,0.00,Snow,Light Snow,240,2013-12-09 18:53:00
2:53 PM,23.0,18.0,81,30.09,1.0,WSW,15.0,24.2,0.00,Snow,Light Snow,240,2013-12-09 19:53:00
3:53 PM,21.9,16.0,78,30.10,1.2,WSW,13.8,-,0.00,Snow,Light Snow,240,2013-12-09 20:53:00
4:53 PM,21.0,14.0,74,30.13,1.2,SW,13.8,-,0.00,Snow,Light Snow,230,2013-12-09 21:53:00
5:53 PM,19.9,12.9,74,30.13,1.2,WSW,12.7,23.0,0.00,,Haze,250,2013-12-09 22:53:00
6:00 PM,19.4,12.2,74,30.08,7.0,WSW,12.7,19.6,N/A,,Mostly Cloudy,250,2013-12-09 23:00:00
6:53 PM,21.0,12.0,68,30.13,10.0,WSW,10.4,18.4,N/A,,Mostly Cloudy,250,2013-12-09 23:53:00
7:53 PM,19.9,10.9,68,30.16,10.0,WSW,13.8,19.6,N/A,,Overcast,250,2013-12-10 00:53:00
8:53 PM,19.9,10.0,65,30.16,10.0,West,19.6,24.2,N/A,,Mostly Cloudy,270,2013-12-10 01:53:00
9:53 PM,19.0,9.0,65,30.15,10.0,West,10.4,26.5,0.00,,Overcast,280,2013-12-10 02:53:00
10:53 PM,18.0,9.0,68,30.16,10.0,West,15.0,-,N/A,,Overcast,270,2013-12-10 03:53:00
11:53 PM,17.1,9.0,71,30.16,9.0,West,9.2,-,0.00,Snow,Light Snow,270,2013-12-10 04:53:00